User: anonymous   Login
Location: Bishop's University Astronomical Observatory
(45.3661°N, 71.8475°W)
Time: 14:58:59
(UTC-04:00)
Language:

Meteor 2-5 Rocket - Orbit

View from above orbital plane
View from above orbital plane
View from above satellite
View from above satellite

Ground track
Ground track

The orbit data is extracted from the following two-line orbital elements,

1 11608U 79095B   15244.79696483 +.00000060 +00000-0 +28412-4 0  9991
2 11608 081.2143 126.0175 0054133 199.7254 160.1822 14.06075889837862
Epoch (UTC): 01 September 2015 19:07:37
Eccentricity: 0.0054133
inclination: 81.2143°
perigee height: 833 km
apogee height: 912 km
right ascension of ascending node: 126.0175°
argument of perigee: 199.7254°
revolutions per day: 14.06075889
mean anomaly at epoch: 160.1822°
orbit number at epoch: 83786

The dashed part of the orbit path shows where the satellite is in the earth's shadow,  

DLR